• Join FlightAware (Why Join?)
  • Login
  • US Flag GB Flag 
09:37 EST


 

Airport Tracker/Info


-or-


 

Live Flight TrackerFlight Track Log ✈ DAL268 ✈ 18-Jul-2013 ✈ KSFO - KJFK

Flight Track Log - Related Links

Times and Time Zones

All times are in EDT time to prevent confusion due to time zone crossing. See the DAL268 flight status page for this flight to view local times or setup timezone preferences in your user account.

Time Position Orientation Groundspeed Altitude Reporting Facility
EDT Latitude Longitude Course Direction KTS MPH feet Rate Location/Type
14:19 37.6160 -122.3820 North 9 10  Level FlightAware
14:30 37.6070 -122.3810 90° East 32 Level FlightAware
14:33 37.8202 -122.1631 38° Northeast  Level FlightAware Approximate
14:34 37.9127 -122.0707 38° Northeast  Level FlightAware Approximate
14:34 37.6130 -122.3770 38° Northeast 120 138  Level FlightAware
14:34 37.6231 -122.3700 29° Northeast 169 194 1,154 Level FlightAware ADS-B
14:35 37.6303 -122.3650 29° Northeast 165 190 500 2,625 Climbing FlightAware ADS-B
14:35 37.6331 -122.3620 40° Northeast 166 191 700 2,308 Climbing FlightAware ADS-B
14:35 37.6379 -122.3570 40° Northeast 174 200 1,000 2,087 Climbing FlightAware ADS-B
14:35 37.6469 -122.3460 44° Northeast 190 219 1,500 2,000 Climbing FlightAware ADS-B
14:35 37.6487 -122.3430 53° Northeast 195 224 1,600 1,895 Climbing FlightAware ADS-B
14:35 37.6587 -122.3290 48° Northeast 211 243 2,100 1,935 Climbing FlightAware ADS-B
14:36 37.6694 -122.3150 46° Northeast 228 262 2,600 1,935 Climbing FlightAware ADS-B
14:36 37.6821 -122.2980 47° Northeast 254 292 3,100 2,129 Climbing FlightAware ADS-B
14:36 37.6951 -122.2810 46° Northeast 267 307 3,700 2,667 Climbing FlightAware ADS-B
14:36 37.7053 -122.2690 43° Northeast 268 308 4,300 3,111 Climbing FlightAware ADS-B
14:37 37.7199 -122.2530 41° Northeast 272 313 5,100 3,000 Climbing FlightAware ADS-B
14:37 37.7306 -122.2470 24° Northeast 280 322 5,500 2,769 Climbing FlightAware ADS-B
14:37 37.7358 -122.2450 17° North 281 323 5,700 2,727 Climbing FlightAware ADS-B
14:37 37.7439 -122.2450 360° North 281 323 6,000 2,857 Climbing FlightAware ADS-B
14:37 37.7623 -122.2500 348° North 284 327 6,700 3,000 Climbing FlightAware ADS-B
14:37 37.7820 -122.2560 346° North 285 328 7,500 2,727 Climbing FlightAware ADS-B
14:38 37.8470 -122.2760 346° North 301 346 9,700 2,667 Climbing FlightAware
14:39 37.8666 -122.2810 349° North 284 327 10,300 2,538 Climbing FlightAware ADS-B
14:39 37.9190 -122.2960 347° North 313 360 11,900 2,441 Climbing FlightAware
14:39 37.9500 -122.3040 348° North 323 372 12,700 1,742 Climbing FlightAware ADS-B
14:40 37.9666 -122.3040 360° North 329 379 12,800 706 Climbing FlightAware ADS-B
14:40 37.9757 -122.3010 15° North 330 380 12,900 222 Climbing FlightAware ADS-B
14:40 38.0050 -122.2890 18° North 335 386 12,900 563 Level FlightAware ADS-B
14:40 38.0192 -122.2760 36° Northeast 334 384 13,200 2,250 Climbing FlightAware ADS-B
14:41 38.0332 -122.2580 45° Northeast 333 383 13,800 2,824 Climbing FlightAware ADS-B
14:41 38.0690 -122.1980 53° Northeast 330 380 15,600 2,526 Climbing FlightAware ADS-B
14:42 38.1035 -122.1380 54° Northeast 333 383 17,000 1,959 Climbing FlightAware ADS-B
14:43 38.1600 -122.0420 53° Northeast 361 415 18,800 1,154 Climbing FlightAware
14:44 38.2050 -121.9640 54° Northeast 401 461 19,000 140 Climbing FlightAware
14:44 38.2510 -121.8850 53° Northeast 424 488 19,000 857 Level FlightAware
14:45 38.3030 -121.7960 53° Northeast 429 494 20,200 1,683 Climbing FlightAware
14:46 38.3510 -121.7130 54° Northeast 440 506 21,300 1,703 Climbing FlightAware
14:46 38.3910 -121.6430 54° Northeast 442 509 22,300 1,737 Climbing FlightAware
14:47 38.4420 -121.5540 54° Northeast 448 516 23,500 1,643 Climbing FlightAware
14:48 38.4950 -121.4630 53° Northeast 457 526 24,600 1,385 Climbing FlightAware
14:48 38.5390 -121.3880 53° Northeast 467 537 25,300 1,308 Climbing FlightAware
14:49 38.5960 -121.2910 53° Northeast 477 549 26,300 1,412 Climbing FlightAware
14:49 38.6310 -121.2310 53° Northeast 483 556 26,900 1,233 Climbing FlightAware
14:50 38.6920 -121.1250 54° Northeast 494 568 27,800 1,103 Climbing FlightAware
14:51 38.7490 -121.0260 54° Northeast 504 580 28,500 1,200 Climbing FlightAware
14:51 38.8030 -120.9330 53° Northeast 508 585 29,400 1,463 Climbing FlightAware
14:52 38.8600 -120.8330 54° Northeast 507 583 30,500 1,744 Climbing FlightAware
14:53 38.9250 -120.7210 53° Northeast 501 577 31,900 1,553 Climbing FlightAware
14:54 38.9780 -120.6310 53° Northeast 504 580 32,700 786 Climbing FlightAware
14:54 39.0420 -120.5190 54° Northeast 507 583 33,000 217 Climbing FlightAware
14:55 39.0970 -120.4230 54° Northeast 505 581 33,000  Level FlightAware
14:56 39.1610 -120.3110 54° Northeast 505 581 33,000  Level FlightAware
14:56 39.2160 -120.2140 54° Northeast 505 581 33,000  Level FlightAware
14:57 39.2780 -120.1060 53° Northeast 506 582 33,000  Level FlightAware
14:58 39.3330 -120.0080 54° Northeast 506 582 33,000  Level FlightAware
14:58 39.3870 -119.9130 54° Northeast 506 582 33,000  Level FlightAware
14:59 39.4480 -119.8050 54° Northeast 507 583 33,000  Level FlightAware
15:00 39.5130 -119.7150 47° Northeast 509 586 33,000  Level FlightAware
15:00 39.5840 -119.6360 41° Northeast 509 586 33,000 70 Level FlightAware
15:01 39.6650 -119.5460 41° Northeast 511 588 33,100 690 Climbing FlightAware
15:02 39.7360 -119.4650 41° Northeast 510 587 34,000 1,407 Climbing FlightAware
15:03 39.8050 -119.3760 45° Northeast 509 586 35,000 1,395 Climbing FlightAware
15:03 39.8810 -119.2750 46° Northeast 507 583 36,000 1,129 Climbing FlightAware
15:04 39.9340 -119.1800 54° Northeast 505 581 36,600 723 Climbing FlightAware
15:05 39.9740 -119.0580 67° East 506 582 37,000 282 Climbing FlightAware
15:05 40.0080 -118.9400 69° East 506 582 37,000  Level FlightAware
15:06 40.0410 -118.8250 69° East 507 583 37,000  Level FlightAware
15:07 40.0770 -118.7000 69° East 506 582 37,000  Level FlightAware
15:08 40.1100 -118.5840 70° East 506 582 37,000  Level FlightAware
15:08 40.1470 -118.4550 69° East 506 582 37,000  Level FlightAware
15:09 40.1910 -118.3020 69° East 505 581 37,000  Level FlightAware
15:11 40.2960 -117.9230 70° East 505 581 37,000  Level FlightAware
15:12 40.3290 -117.8070 70° East 506 582 37,000  Level FlightAware
15:13 40.3650 -117.6750 70° East 507 583 37,000  Level FlightAware
15:14 40.3980 -117.5550 70° East 507 583 37,000  Level FlightAware
15:15 40.4390 -117.4070 70° East 507 583 37,000  Level FlightAware
15:15 40.4640 -117.3160 70° East 507 583 37,000  Level FlightAware
15:16 40.4880 -117.2320 69° East 507 583 37,000  Level FlightAware
15:17 40.5210 -117.1120 70° East 507 583 37,000  Level FlightAware
15:17 40.5450 -117.0230 70° East 507 583 37,000  Level FlightAware
15:18 40.5700 -116.9340 70° East 507 583 37,000  Level FlightAware
15:19 40.6030 -116.8130 70° East 507 583 37,000  Level FlightAware
15:19 40.6290 -116.7220 69° East 507 583 37,000  Level FlightAware
15:20 40.6610 -116.6030 70° East 507 583 37,000  Level FlightAware
15:21 40.6860 -116.5140 70° East 507 583 37,000  Level FlightAware
15:22 40.7190 -116.3960 70° East 507 583 37,000  Level FlightAware
15:22 40.7440 -116.3040 70° East 507 583 37,000  Level FlightAware
15:23 40.9159 -116.0280 50° Northeast 504 580 37,000  Level FlightAware ADS-B
15:23 40.9481 -115.9440 63° Northeast 504 580 37,000  Level FlightAware ADS-B
15:26 41.1517 -115.4040 63° Northeast 502 578 37,000  Level FlightAware ADS-B
15:27 41.1828 -115.3200 64° Northeast 501 577 37,000  Level FlightAware ADS-B
15:27 41.2145 -115.2350 64° Northeast 500 575 37,000  Level FlightAware ADS-B
15:28 41.2463 -115.1490 64° Northeast 501 577 37,000  Level FlightAware ADS-B
15:28 41.2776 -115.0650 64° Northeast 501 577 37,000  Level FlightAware ADS-B
15:29 41.3116 -114.9730 64° Northeast 500 575 37,000  Level FlightAware ADS-B
15:30 41.3589 -114.8440 64° Northeast 500 575 37,000  Level FlightAware ADS-B
15:30 41.3921 -114.7530 64° Northeast 500 575 37,000  Level FlightAware ADS-B
15:31 41.4283 -114.6540 64° Northeast 500 575 37,000  Level FlightAware ADS-B
15:32 41.4651 -114.5530 64° Northeast 501 577 37,000  Level FlightAware ADS-B
15:32 41.4968 -114.4650 64° Northeast 500 575 37,000  Level FlightAware ADS-B
15:33 41.5286 -114.3770 64° Northeast 500 575 37,000  Level FlightAware ADS-B
15:33 41.5587 -114.2940 64° Northeast 501 577 37,000  Level FlightAware ADS-B
15:34 41.5901 -114.2060 64° Northeast 501 577 37,000  Level FlightAware ADS-B
15:34 41.6204 -114.1210 64° Northeast 502 578 37,000  Level FlightAware ADS-B
15:35 41.6525 -114.0320 64° Northeast 501 577 37,000  Level FlightAware ADS-B
15:35 41.6910 -113.9230 65° Northeast 502 578 37,000  Level FlightAware
15:36 41.7026 -113.8910 64° Northeast 502 578 37,000  Level FlightAware ADS-B
15:36 41.7330 -113.8050 65° Northeast 502 578 37,000  Level FlightAware ADS-B
15:37 41.7628 -113.7200 65° Northeast 503 579 37,000  Level FlightAware ADS-B
15:37 41.7966 -113.6240 65° Northeast 504 580 37,000  Level FlightAware ADS-B
15:38 41.8396 -113.5010 65° Northeast 505 581 37,000  Level FlightAware ADS-B
15:39 41.8940 -113.3450 65° Northeast 504 580 37,000  Level FlightAware ADS-B
15:39 41.9320 -113.2350 65° Northeast 504 580 37,000  Level FlightAware
15:40 41.9718 -113.1210 65° Northeast 506 582 37,000  Level FlightAware ADS-B
15:41 42.0118 -113.0040 65° Northeast 507 583 37,000  Level FlightAware ADS-B
15:41 42.0440 -112.9100 65° Northeast 507 583 37,000  Level FlightAware ADS-B
15:42 42.0920 -112.7690 65° Northeast 506 582 37,000  Level FlightAware
15:42 42.1079 -112.7230 65° Northeast 506 582 37,000  Level FlightAware ADS-B
15:43 42.1454 -112.6130 65° Northeast 507 583 37,000  Level FlightAware ADS-B
15:44 42.1834 -112.5000 66° East 507 583 37,000  Level FlightAware ADS-B
15:44 42.2100 -112.4220 65° Northeast 507 583 37,000  Level FlightAware
15:45 42.2491 -112.3010 66° East 508 585 37,000  Level FlightAware ADS-B
15:46 42.2880 -112.1820 66° East 509 586 37,000  Level FlightAware ADS-B
15:46 42.3270 -112.0620 66° East 509 586 37,000  Level FlightAware ADS-B
15:47 42.3560 -111.9720 66° East 510 587 37,000  Level FlightAware ADS-B
15:47 42.3848 -111.8830 66° East 511 588 37,000  Level FlightAware ADS-B
15:48 42.4163 -111.7850 66° East 510 587 37,000  Level FlightAware ADS-B
15:48 42.4446 -111.6960 67° East 511 588 37,000  Level FlightAware ADS-B
15:49 42.4787 -111.5900 66° East 511 588 37,000  Level FlightAware ADS-B
15:50 42.5131 -111.4820 67° East 510 587 37,000  Level FlightAware ADS-B
15:50 42.5570 -111.3490 66° East 510 587 37,000  Level FlightAware
15:51 42.6053 -111.1903 66° East 508 585 37,000  Level Salt Lake Center
15:52 42.6603 -111.0119 67° East 511 588 37,000  Level Salt Lake Center
15:53 42.7192 -110.8253 67° East 513 590 37,000  Level Salt Lake Center
15:54 42.7797 -110.6286 67° East 508 585 37,000  Level Salt Lake Center
15:55 42.8319 -110.4586 67° East 508 585 37,000  Level Salt Lake Center
15:57 42.8928 -110.2597 67° East 509 586 37,000  Level Salt Lake Center
15:58 42.9433 -110.0886 68° East 509 586 37,000  Level Salt Lake Center
15:59 43.0031 -109.8894 68° East 511 588 37,000  Level Salt Lake Center
16:00 43.0567 -109.7114 68° East 510 587 37,000  Level Salt Lake Center
16:01 43.1094 -109.5325 68° East 510 587 37,000  Level Salt Lake Center
16:02 43.1622 -109.3542 68° East 509 586 37,000  Level Salt Lake Center
16:03 43.2156 -109.1756 68° East 509 586 37,000  Level Salt Lake Center
16:04 43.2778 -108.9583 68° East 510 587 37,000  Level Salt Lake Center
16:05 43.3275 -108.7753 69° East 513 590 37,000  Level Salt Lake Center
16:06 43.3658 -108.5889 74° East 511 588 37,000  Level Salt Lake Center
16:07 43.3947 -108.3986 78° East 511 588 37,000  Level Salt Lake Center
16:08 43.4231 -108.2072 78° East 514 592 37,000  Level Salt Lake Center
16:09 43.4561 -107.9789 79° East 512 589 37,000  Level Salt Lake Center
16:10 43.4836 -107.7858 79° East 515 593 37,000  Level Salt Lake Center
16:11 43.5114 -107.5944 79° East 516 594 37,000  Level Salt Lake Center
16:12 43.5381 -107.4039 79° East 511 588 37,000  Level Salt Lake Center
16:13 43.5642 -107.2111 79° East 515 593 37,000  Level Salt Lake Center
16:14 43.5964 -106.9800 79° East 515 593 37,000  Level Salt Lake Center
16:15 43.6225 -106.8003 79° East 507 583 37,000  Level Salt Lake Center
16:16 43.6469 -106.6147 80° East 512 589 37,000  Level Salt Lake Center
16:17 43.6925 -106.4050 73° East 510 587 37,000  Level Salt Lake Center
16:18 43.7058 -106.3442 73° East 510 587 37,000  Level Denver Center
16:19 43.7592 -106.1061 73° East 509 586 37,000  Level Denver Center
16:20 43.7942 -105.9575 72° East 510 587 37,000  Level Denver Center
16:21 43.8486 -105.7156 73° East 513 590 37,000  Level Denver Center
16:22 43.8942 -105.5069 73° East 508 585 37,000  Level Denver Center
16:23 43.9411 -105.2961 73° East 511 588 37,000  Level Denver Center
16:24 43.9894 -105.0872 72° East 509 586 37,000  Level Denver Center
16:25 44.0311 -104.9083 72° East 509 586 37,000  Level Denver Center
16:26 44.0789 -104.6978 72° East 510 587 37,000  Level Denver Center
16:27 44.1131 -104.5469 72° East 510 587 37,000  Level Denver Center
16:28 44.1658 -104.3125 73° East 501 577 37,000  Level Denver Center
16:29 44.2067 -104.1375 72° East 496 571 37,000  Level Denver Center
16:31 44.2608 -103.8997 72° East 501 577 37,000  Level Denver Center
16:32 44.2939 -103.7189 76° East 501 577 37,000  Level Denver Center
16:33 44.3214 -103.5053 80° East 500 575 37,000  Level Denver Center
16:34 44.3439 -103.3206 80° East 502 578 37,000  Level Denver Center
16:35 44.3631 -103.1294 82° East 495 570 37,000  Level Denver Center
16:36 44.3767 -102.9358 84° East 499 574 37,000  Level Denver Center
16:37 44.3919 -102.7397 84° East 505 581 37,000  Level Denver Center
16:38 44.4097 -102.5031 84° East 509 586 37,000  Level Denver Center
16:39 44.4203 -102.3450 85° East 511 588 37,000  Level Denver Center
16:40 44.4383 -102.1075 84° East 512 589 37,000  Level Denver Center
16:41 44.4508 -101.9069 85° East 516 594 37,000  Level Denver Center
16:42 44.4644 -101.7092 84° East 514 592 37,000  Level Denver Center
16:43 44.4731 -101.5092 86° East 516 594 37,000  Level Denver Center
16:44 44.4883 -101.2725 85° East 511 588 37,000  Level Denver Center
16:45 44.4997 -101.0761 85° East 509 586 37,000  Level Denver Center
16:46 44.5108 -100.8797 85° East 508 585 37,000  Level Denver Center
16:47 44.5292 -100.6106 84° East 506 582 37,000  Level Minneapolis Center
16:49 44.5397 -100.4158 86° East 505 581 37,000  Level Minneapolis Center
16:50 44.5500 -100.2200 86° East 506 582 37,000  Level Minneapolis Center
16:51 44.5603 -100.0244 86° East 508 585 37,000  Level Minneapolis Center
16:52 44.5728 -99.7908 86° East 507 583 37,000  Level Minneapolis Center
16:53 44.5819 -99.5958 86° East 506 582 37,000  Level Minneapolis Center
16:59 44.6360 -98.3630 86° East 503 579 37,000  Level FlightAware
17:00 44.6410 -98.2090 87° East 503 579 37,000  Level FlightAware
17:00 44.6460 -98.0800 87° East 503 579 37,000  Level FlightAware
17:01 44.6500 -97.9610 87° East 504 580 37,000  Level FlightAware
17:02 44.6540 -97.8590 87° East 504 580 37,000  Level FlightAware
17:02 44.6587 -97.6707 88° East 504 580 37,000  Level FlightAware ADS-B
17:03 44.6618 -97.5705 87° East 505 581 37,000  Level FlightAware ADS-B
17:03 44.6646 -97.4713 88° East 506 582 37,000  Level FlightAware ADS-B
17:04 44.6685 -97.3360 88° East 505 581 37,000  Level FlightAware ADS-B
17:05 44.6712 -97.2364 88° East 505 581 37,000  Level FlightAware ADS-B
17:05 44.6738 -97.1371 88° East 504 580 37,000  Level FlightAware ADS-B
17:06 44.6770 -97.0180 88° East 505 581 37,000  Level FlightAware
17:06 44.6800 -96.8910 88° East 504 580 37,000  Level FlightAware
17:07 44.6830 -96.7490 88° East 504 580 37,000  Level FlightAware
17:08 44.6860 -96.6240 88° East 504 580 37,000  Level FlightAware
17:08 44.6880 -96.5100 89° East 504 580 37,000  Level FlightAware
17:09 44.6910 -96.3640 88° East 503 579 37,000  Level FlightAware
17:10 44.6940 -96.2330 88° East 502 578 37,000  Level FlightAware
17:10 44.6960 -96.1080 89° East 501 577 37,000  Level FlightAware
17:12 44.6990 -95.8940 89° East 501 577 37,000  Level FlightAware
17:12 44.7010 -95.7390 89° East 500 575 37,000  Level FlightAware
17:13 44.7030 -95.5980 89° East 500 575 37,000  Level FlightAware
17:14 44.7050 -95.4590 89° East 499 574 37,000  Level FlightAware
17:14 44.7060 -95.3310 89° East 498 573 37,000  Level FlightAware
17:15 44.7080 -95.1830 89° East 497 572 37,000  Level FlightAware
17:16 44.7090 -95.0660 89° East 497 572 37,000  Level FlightAware
17:16 44.7100 -94.9420 89° East 497 572 37,000  Level FlightAware
17:17 44.7100 -94.8130 90° East 497 572 37,000  Level FlightAware
17:18 44.7110 -94.6840 89° East 496 571 37,000  Level FlightAware
17:19 44.7120 -94.5380 89° East 489 563 37,000  Level FlightAware
17:19 44.7120 -94.4090 90° East 489 563 37,000  Level FlightAware
17:19 44.7120 -94.3730 90° East 489 563 37,000  Level FlightAware
17:22 44.7120 -93.9550 90° East 488 562 37,000  Level FlightAware
17:23 44.7120 -93.8080 90° East 488 562 37,000  Level FlightAware
17:23 44.7110 -93.7000 91° East 487 560 37,000  Level FlightAware
17:24 44.7100 -93.4960 90° East 486 559 37,000  Level FlightAware
17:25 44.7090 -93.3730 91° East 485 558 37,000  Level FlightAware
17:25 44.7080 -93.2310 91° East 483 556 37,000  Level FlightAware
17:26 44.7070 -93.0820 90° East 482 555 37,000  Level FlightAware
17:27 44.7060 -92.9610 91° East 482 555 37,000  Level FlightAware
17:28 44.7040 -92.8130 91° East 480 552 37,000  Level FlightAware
17:28 44.7030 -92.7200 91° East 480 552 37,000  Level FlightAware
17:29 44.7010 -92.5810 91° East 478 550 37,000  Level FlightAware
17:29 44.6990 -92.4730 91° East 478 550 37,000  Level FlightAware
17:30 44.6970 -92.3300 91° East 482 555 37,000  Level FlightAware
17:31 44.6950 -92.1980 91° East 492 566 37,000  Level FlightAware
17:32 44.6920 -92.0470 92° East 499 574 37,000  Level FlightAware
17:32 44.6900 -91.9180 91° East 498 573 37,000  Level FlightAware
17:33 44.6870 -91.7770 92° East 494 568 37,000  Level FlightAware
17:34 44.6840 -91.6510 92° East 491 565 37,000  Level FlightAware
17:34 44.6810 -91.5230 92° East 488 562 37,000  Level FlightAware
17:35 44.6780 -91.3840 92° East 485 558 37,000  Level FlightAware
17:36 44.6750 -91.2470 92° East 483 556 37,000  Level FlightAware
17:37 44.6710 -91.1190 92° East 482 555 37,000  Level FlightAware
17:37 44.6680 -90.9920 92° East 483 556 37,000  Level FlightAware
17:38 44.6640 -90.8650 92° East 484 557 37,000  Level FlightAware
17:39 44.6600 -90.7250 92° East 485 558 37,000  Level FlightAware
17:39 44.6560 -90.5990 93° East 486 559 37,000  Level FlightAware
17:40 44.6520 -90.4760 93° East 487 560 37,000  Level FlightAware
17:41 44.6480 -90.3560 93° East 488 562 37,000  Level FlightAware
17:41 44.6430 -90.2110 93° East 489 563 37,000  Level FlightAware
17:42 44.6400 -90.1100 92° East 490 564 37,000  Level FlightAware
17:43 44.6350 -89.9710 93° East 490 564 37,000  Level FlightAware
17:43 44.6300 -89.8350 93° East 491 565 37,000  Level FlightAware
17:44 44.6250 -89.7240 94° East 490 564 37,000  Level FlightAware
17:45 44.6200 -89.5990 93° East 490 564 37,000  Level FlightAware
17:45 44.6150 -89.4720 93° East 487 560 37,000  Level FlightAware
17:46 44.6100 -89.3410 93° East 485 558 37,000  Level FlightAware
17:47 44.6040 -89.2000 93° East 484 557 37,000  Level FlightAware
17:47 44.5990 -89.0860 93° East 484 557 37,000  Level FlightAware
17:48 44.5920 -88.9350 94° East 486 559 37,000  Level FlightAware
17:49 44.5870 -88.8240 94° East 488 562 37,000  Level FlightAware
17:49 44.5810 -88.7000 94° East 489 563 37,000  Level FlightAware
17:50 44.5740 -88.5560 94° East 491 565 37,000  Level FlightAware
17:51 44.5670 -88.4300 94° East 494 568 37,000  Level FlightAware
17:51 44.5610 -88.3040 94° East 494 568 37,000  Level FlightAware
17:52 44.5470 -88.1630 98° East 495 570 37,000  Level FlightAware
17:53 44.5240 -88.0410 105° East 494 568 37,000  Level FlightAware
17:54 44.4850 -87.8610 107° East 494 568 37,000  Level FlightAware
17:55 44.4590 -87.7390 107° East 495 570 37,000  Level FlightAware
17:55 44.4370 -87.6310 106° East 495 570 37,000  Level FlightAware
17:56 44.4110 -87.5050 106° East 495 570 37,000  Level FlightAware
17:57 44.3760 -87.3510 108° East 497 572 37,000  Level FlightAware
17:57 44.3480 -87.2220 107° East 497 572 37,000  Level FlightAware
17:58 44.3180 -87.0880 107° East 495 570 37,000  Level FlightAware
17:59 44.2900 -86.9590 107° East 493 567 37,000  Level FlightAware
17:59 44.2670 -86.8580 108° East 494 568 37,000  Level FlightAware
18:00 44.2320 -86.6980 107° East 494 568 37,000  Level FlightAware
18:01 44.2070 -86.5890 108° East 494 568 37,000  Level FlightAware
18:01 44.1810 -86.4730 107° East 494 568 37,000  Level FlightAware
18:02 44.1550 -86.3590 108° East 494 568 37,000  Level FlightAware
18:03 44.1260 -86.2320 108° East 492 566 37,000  Level FlightAware
18:03 44.0990 -86.1120 107° East 491 565 37,000  Level FlightAware
18:04 44.0690 -85.9850 108° East 490 564 37,000  Level FlightAware
18:05 44.0420 -85.8670 108° East 490 564 37,000  Level FlightAware
18:06 44.0110 -85.7340 108° East 489 563 37,000  Level FlightAware
18:06 43.9800 -85.6050 108° East 489 563 37,000  Level FlightAware
18:07 43.9510 -85.4840 108° East 488 562 37,000  Level FlightAware
18:08 43.9240 -85.3720 108° East 489 563 37,000  Level FlightAware
18:08 43.8960 -85.2590 109° East 489 563 37,000  Level FlightAware
18:09 43.8670 -85.1370 108° East 489 563 37,000  Level FlightAware
18:10 43.8360 -85.0120 109° East 490 564 37,000  Level FlightAware
18:10 43.8110 -84.9140 109° East 489 563 37,000  Level FlightAware
18:11 43.7780 -84.7800 109° East 488 562 37,000  Level FlightAware
18:12 43.7390 -84.6220 109° East 487 560 37,000  Level FlightAware
18:12 43.7120 -84.5160 109° East 487 560 37,000  Level FlightAware
18:13 43.6810 -84.3940 109° East 487 560 37,000  Level FlightAware
18:14 43.6520 -84.2810 109° East 487 560 37,000  Level FlightAware
18:14 43.6200 -84.1540 109° East 485 558 37,000  Level FlightAware
18:15 43.5870 -84.0250 109° East 483 556 37,000  Level FlightAware
18:16 43.5560 -83.9040 109° East 482 555 37,000  Level FlightAware
18:17 43.5260 -83.7920 110° East 481 554 37,000  Level FlightAware
18:17 43.5010 -83.6960 110° East 478 550 37,000  Level FlightAware
18:18 43.4670 -83.5630 109° East 477 549 37,000  Level FlightAware
18:19 43.4370 -83.4490 110° East 475 547 37,000 -146 Level FlightAware
18:19 43.4050 -83.3300 110° East 473 544 36,800 -612 Descending FlightAware
18:21 43.3370 -83.0770 110° East 470 541 35,500 -750 Descending FlightAware
18:22 43.3070 -82.9610 110° East 472 543 35,000 -375 Descending FlightAware
18:22 43.2740 -82.8420 111° Southeast 476 548 35,000  Level FlightAware
18:23 43.2300 -82.6770 110° East 478 550 35,000  Level FlightAware
18:24 43.2030 -82.5790 111° Southeast 478 550 35,000  Level FlightAware
18:26 43.1110 -82.2450 111° Southeast 478 550 35,000  Level FlightAware
18:27 43.0490 -82.0250 111° Southeast 477 549 35,000  Level FlightAware
18:28 43.0200 -81.9210 111° Southeast 478 550 35,000  Level FlightAware
18:28 42.9890 -81.8110 111° Southeast 477 549 35,000  Level FlightAware
18:29 42.9370 -81.6270 111° Southeast 477 549 35,000  Level FlightAware
18:30 42.9010 -81.5020 111° Southeast 476 548 35,000  Level FlightAware
18:31 42.8710 -81.3940 111° Southeast 476 548 35,000  Level FlightAware
18:32 42.8340 -81.2660 111° Southeast 475 547 35,000  Level FlightAware
18:32 42.8010 -81.1540 112° Southeast 477 549 35,000  Level FlightAware
18:33 42.7730 -81.0540 111° Southeast 478 550 35,000  Level FlightAware
18:34 42.7320 -80.9160 112° Southeast 477 549 35,000  Level FlightAware
18:34 42.7040 -80.8190 111° Southeast 476 548 35,000  Level FlightAware
18:35 42.6710 -80.7070 112° Southeast 475 547 35,000  Level FlightAware
18:36 42.6340 -80.5830 112° Southeast 468 539 35,000  Level FlightAware
18:36 42.6020 -80.4750 112° Southeast 469 540 35,000  Level FlightAware
18:37 42.5710 -80.3690 112° Southeast 472 543 35,000  Level FlightAware
18:38 42.5370 -80.2570 112° Southeast 472 543 35,000  Level FlightAware
18:38 42.5040 -80.1470 112° Southeast 475 547 35,000  Level FlightAware
18:39 42.4710 -80.0390 112° Southeast 475 547 35,000  Level FlightAware
18:40 42.4330 -79.9140 112° Southeast 473 544 35,000  Level FlightAware
18:40 42.4010 -79.8080 112° Southeast 473 544 35,000  Level FlightAware
18:41 42.3600 -79.6740 112° Southeast 473 544 35,000  Level FlightAware
18:42 42.3250 -79.5590 112° Southeast 473 544 35,000  Level FlightAware
18:43 42.2920 -79.4530 113° Southeast 473 544 35,000  Level FlightAware
18:43 42.2530 -79.3260 112° Southeast 474 545 35,000  Level FlightAware
18:44 42.2250 -79.2370 113° Southeast 476 548 35,000  Level FlightAware
18:45 42.1840 -79.0990 112° Southeast 476 548 35,000  Level FlightAware
18:45 42.1520 -78.9750 109° East 476 548 35,000  Level FlightAware
18:46 42.1270 -78.8740 108° East 477 549 35,000  Level FlightAware
18:47 42.0990 -78.7640 109° East 477 549 35,000  Level FlightAware
18:47 42.0680 -78.6380 108° East 475 547 35,000  Level FlightAware
18:48 42.0450 -78.5490 109° East 475 547 35,000  Level FlightAware
18:49 42.0150 -78.4330 109° East 476 548 35,000  Level FlightAware
18:49 41.9860 -78.3200 109° East 477 549 35,000  Level FlightAware
18:50 41.9540 -78.1930 109° East 477 549 35,000 -341 Level FlightAware
18:51 41.9220 -78.0700 109° East 476 548 34,500 -714 Descending FlightAware
18:51 41.8920 -77.9570 110° East 478 550 34,000 -357 Descending FlightAware
18:52 41.8600 -77.8340 109° East 477 549 34,000  Level FlightAware
18:53 41.8330 -77.7290 109° East 476 548 34,000 -395 Level FlightAware
18:53 41.8040 -77.6220 110° East 478 550 33,500 -732 Descending FlightAware
18:54 41.7720 -77.5000 109° East 483 556 33,000 -341 Descending FlightAware
18:55 41.7390 -77.3770 110° East 491 565 33,000  Level FlightAware
18:56 41.7080 -77.2600 110° East 493 567 33,000  Level FlightAware
18:56 41.6760 -77.1420 110° East 493 567 33,000  Level FlightAware
18:57 41.6440 -77.0220 110° East 494 568 33,000  Level FlightAware
18:58 41.6040 -76.8750 110° East 495 570 33,000  Level FlightAware
18:58 41.5793 -76.7853 110° East 498 573 33,000  Level FlightAware ADS-B
18:59 41.5542 -76.6934 110° East 499 574 33,000  Level FlightAware ADS-B
18:59 41.5303 -76.6066 110° East 502 578 33,000  Level FlightAware ADS-B
19:00 41.5037 -76.5104 110° East 502 578 33,000  Level FlightAware ADS-B
19:00 41.4763 -76.4115 110° East 503 579 33,000  Level FlightAware ADS-B
19:01 41.4521 -76.3247 110° East 500 575 33,000 -689 Level FlightAware ADS-B
19:01 41.4277 -76.2370 110° East 490 564 32,300 -2,123 Descending FlightAware ADS-B
19:02 41.4007 -76.1405 110° East 490 564 30,700 -3,045 Descending FlightAware ADS-B
19:03 41.3748 -76.0482 110° East 491 565 28,900 -2,906 Descending FlightAware ADS-B
19:03 41.3505 -75.9621 111° Southeast 488 562 27,600 -2,190 Descending FlightAware ADS-B
19:04 41.3250 -75.8725 111° Southeast 478 550 26,600 -1,619 Descending FlightAware ADS-B
19:04 41.3006 -75.7871 111° Southeast 472 543 25,900 -1,258 Descending FlightAware ADS-B
19:05 41.2767 -75.7048 111° Southeast 468 539 25,300 -1,143 Descending FlightAware ADS-B
19:05 41.2503 -75.6216 113° Southeast 465 535 24,700 -1,048 Descending FlightAware ADS-B
19:06 41.2230 -75.5394 114° Southeast 466 536 24,200 -923 Descending FlightAware ADS-B
19:06 41.1932 -75.4507 114° Southeast 466 536 23,700 -923 Descending FlightAware ADS-B
19:07 41.1659 -75.3695 114° Southeast 462 532 23,200 -667 Descending FlightAware ADS-B
19:07 41.1388 -75.2892 114° Southeast 455 524 23,000 -190 Descending FlightAware ADS-B
19:08 41.1117 -75.2092 114° Southeast 465 535 23,000  Level FlightAware ADS-B
19:08 41.0850 -75.1306 114° Southeast 470 541 23,000  Level FlightAware ADS-B
19:09 41.0584 -75.0522 114° Southeast 467 537 23,000  Level FlightAware ADS-B
19:09 41.0306 -74.9707 114° Southeast 456 525 23,000  Level FlightAware ADS-B
19:10 41.0099 -74.9089 114° Southeast 426 490 23,000  Level FlightAware ADS-B
19:10 41.0061 -74.8954 110° East 417 480 23,000 -900 Level FlightAware ADS-B
19:10 40.9977 -74.8609 108° East 399 459 22,700 -1,440 Descending FlightAware ADS-B
19:10 40.9934 -74.8375 104° East 391 450 22,400 -2,000 Descending FlightAware ADS-B
19:10 40.9899 -74.8110 100° East 384 442 22,000 -1,500 Descending FlightAware ADS-B
19:11 40.9817 -74.7365 98° East 370 426 21,300 -1,149 Descending FlightAware ADS-B
19:11 40.9796 -74.7063 95° East 366 421 21,100 -783 Descending FlightAware ADS-B
19:11 40.9810 -74.6844 85° East 365 420 21,000 -214 Descending FlightAware ADS-B
19:12 40.9901 -74.6451 73° East 366 421 21,000  Level FlightAware ADS-B
19:12 41.0086 -74.5815 69° East 367 422 21,000 -143 Level FlightAware ADS-B
19:12 41.0143 -74.5573 73° East 367 422 20,900 -600 Descending FlightAware ADS-B
19:13 41.0165 -74.5387 81° East 366 421 20,800 -800 Descending FlightAware ADS-B
19:13 41.0171 -74.5225 87° East 364 419 20,700 -1,500 Descending FlightAware ADS-B
19:13 41.0161 -74.5028 94° East 363 418 20,400 -1,500 Descending FlightAware ADS-B
19:13 41.0143 -74.4888 100° East 362 417 20,300 -1,385 Descending FlightAware ADS-B
19:13 41.0114 -74.4743 105° East 362 417 20,100 -1,636 Descending FlightAware ADS-B
19:14 40.9900 -74.3972 110° East 363 418 19,100 -957 Descending FlightAware ADS-B
19:14 40.9710 -74.3315 111° Southeast 360 414 19,000 -94 Descending FlightAware ADS-B
19:15 40.9518 -74.2646 111° Southeast 358 412 19,000  Level FlightAware ADS-B
19:15 40.9393 -74.2212 111° Southeast 360 414 19,000  Level FlightAware ADS-B
19:15 40.9314 -74.2012 118° Southeast 358 412 19,000  Level FlightAware ADS-B
19:15 40.9230 -74.1865 127° Southeast 357 411 19,000  Level FlightAware ADS-B
19:15 40.9183 -74.1797 132° Southeast 356 410 19,000  Level FlightAware ADS-B
19:16 40.9132 -74.1738 139° Southeast 356 410 19,000  Level FlightAware ADS-B
19:16 40.9045 -74.1655 144° Southeast 355 409 19,000  Level FlightAware ADS-B
19:16 40.8919 -74.1562 151° Southeast 352 405 19,000  Level FlightAware ADS-B
19:16 40.8768 -74.1464 154° Southeast 354 407 19,000 -450 Level FlightAware ADS-B
19:16 40.8323 -74.1186 155° Southeast 351 404 18,700 -947 Descending FlightAware ADS-B
19:17 40.7930 -74.0945 155° Southeast 347 399 18,100 -1,273 Descending FlightAware ADS-B
19:17 40.7850 -74.0896 155° Southeast 346 398 18,000 -1,622 Descending FlightAware ADS-B
19:18 40.7394 -74.0618 155° Southeast 343 395 17,100 -1,625 Descending FlightAware ADS-B
19:18 40.7153 -74.0471 155° Southeast 342 394 16,700 -1,455 Descending FlightAware ADS-B
19:18 40.6919 -74.0327 155° Southeast 340 391 16,300 -1,375 Descending FlightAware ADS-B
19:19 40.6470 -74.0049 155° Southeast 342 394 15,600 -1,412 Descending FlightAware ADS-B
19:19 40.6443 -74.0032 154° Southeast 334 384 15,500 -1,371 Descending FlightAware ADS-B
19:19 40.5992 -73.9757 155° Southeast 328 377 14,800 -1,333 Descending FlightAware ADS-B
19:19 40.5938 -73.9724 155° Southeast 328 377 14,700 -1,538 Descending FlightAware ADS-B
19:20 40.5451 -73.9437 156° South 322 371 13,800 -1,455 Descending FlightAware ADS-B
19:20 40.5040 -73.9194 156° South 320 368 13,100 -885 Descending FlightAware ADS-B
19:21 40.4626 -73.8950 156° South 320 368 12,900 -197 Descending FlightAware ADS-B
19:21 40.4219 -73.8709 156° South 320 368 12,900 -787 Level FlightAware ADS-B
19:22 40.3815 -73.8470 156° South 314 361 12,100 -2,129 Descending FlightAware ADS-B
19:22 40.3405 -73.8226 156° South 313 360 10,700 -2,694 Descending FlightAware ADS-B
19:23 40.3167 -73.8083 155° Southeast 312 359 9,900 -2,483 Descending FlightAware ADS-B
19:23 40.3015 -73.7990 155° Southeast 309 356 9,500 -2,211 Descending FlightAware ADS-B
19:23 40.2926 -73.7922 150° Southeast 308 354 9,200 -2,182 Descending FlightAware ADS-B
19:23 40.2784 -73.7743 136° Southeast 307 353 8,700 -2,211 Descending FlightAware ADS-B
19:23 40.2738 -73.7668 129° Southeast 304 350 8,500 -2,250 Descending FlightAware ADS-B
19:24 40.2579 -73.7391 127° Southeast 303 349 7,800 -2,160 Descending FlightAware ADS-B
19:24 40.2530 -73.7300 125° Southeast 300 345 7,600 -2,471 Descending FlightAware ADS-B
19:24 40.2463 -73.7109 115° Southeast 300 345 7,100 -1,881 Descending FlightAware ADS-B
19:25 40.2796 -73.6380 59° Northeast 279 321 5,500 -1,583 Descending FlightAware ADS-B
19:25 40.2992 -73.6296 18° North 275 316 5,200 -1,231 Descending FlightAware ADS-B
19:26 40.3271 -73.6179 18° North 274 315 4,700 -975 Descending FlightAware ADS-B
19:26 40.3900 -73.5820 23° Northeast 273 314 3,900 -706 Descending FlightAware
19:27 40.4040 -73.5720 29° Northeast 271 312 3,900  Level FlightAware
19:27 40.4390 -73.5460 29° Northeast 270 311 3,900  Level FlightAware
19:27 40.4580 -73.5320 29° Northeast 271 312 3,900  Level FlightAware
19:28 40.4710 -73.5230 28° Northeast 270 311 3,900  Level FlightAware
19:28 40.5000 -73.5010 30° Northeast 269 310 3,900  Level FlightAware
19:29 40.5310 -73.4790 28° Northeast 269 310 3,900  Level FlightAware
19:29 40.5640 -73.4650 18° North 266 306 3,900  Level FlightAware
19:30 40.5970 -73.4740 348° North 266 306 3,900  Level FlightAware
19:30 40.6110 -73.4780 348° North 265 305 3,900  Level FlightAware
19:30 40.6450 -73.4880 347° North 262 302 3,900 -632 Level FlightAware
19:31 40.6810 -73.4970 349° North 260 299 3,300 -1,158 Descending FlightAware
19:31 40.7120 -73.5070 346° North 259 298 2,800 -1,116 Descending FlightAware
19:31 40.7300 -73.5160 339° North 255 293 2,500 -1,111 Descending FlightAware
19:32 40.7390 -73.5290 312° West 248 285 2,300 -1,034 Descending FlightAware
19:32 40.7480 -73.5510 298° West 237 273 2,000 -522 Descending FlightAware
19:32 40.7610 -73.5860 296° West 218 251 1,900 -111 Descending FlightAware
19:33 40.7710 -73.6160 294° West 217 250 1,900  Level FlightAware
19:33 40.7740 -73.6270 290° West 214 246 1,900 167 Level FlightAware
19:33 40.7640 -73.6580 247° West 193 222 2,000  Climbing FlightAware
19:34 40.7560 -73.6670 220° Southwest 188 216 1,900 -150 Descending FlightAware
19:34 40.7370 -73.6830 213° Southwest 181 208 1,900 -421 Level FlightAware
19:35 40.7150 -73.7000 210° Southwest 173 199 1,500 -840 Descending FlightAware
19:35 40.7020 -73.7110 213° Southwest 152 175 1,200 -750 Descending FlightAware
19:35 40.6870 -73.7230 211° Southwest 135 155 900 -737 Descending FlightAware
19:36 40.6710 -73.7350 210° Southwest 131 151 500 -714 Descending FlightAware
19:36 40.6640 -73.7400 208° Southwest 129 148 400 -585 Descending FlightAware
19:37 40.6500 -73.7520 213° Southwest 131 151 100 -643 Descending FlightAware
19:37 40.6350 -73.7630 209° Southwest 100 115 -214 Descending FlightAware
19:37 40.6300 -73.7680 217° Southwest 32 37  Level FlightAware
19:38 40.6300 -73.7710 270° West 34 39  Level FlightAware
19:38 40.6310 -73.7730 303° West 30 35  Level FlightAware